Location: Skalnate Pleso
(49.1889°N, 20.2450°E)
Time: 06:48:11
(UTC+02:00)

Cosmos 1269 Rocket - Pass Details

Date: 24 February 2020
Orbit: 772 x 780 km, 74.1° (Epoch: 07 April)

Event Time Altitude Azimuth Distance (km) Brightness Sun altitude
Exits shadow 03:10:25 18° 357° (N) 1,830 6.1 -33.1°
Drops below altitude 10° 03:12:02 10° 8° (N) 2,332 6.8 -32.8°
Sets 03:14:41 0° 19° (NNE) 3,264 7.8 -32.5°
